Snowfall_Accumulation
0.0 0.0 0.0 0.0 0.0 0.0 0.0 0.0 0.0 0.0 0.0 0.0 0.0 0.0 0.0 0.0 0.0 0.0 0.0 0.0 0.0 0.0 0.0 0.0 0.0 0.0 0.0 0.0 0.0 0.0 0.0 0.1 0.3 0.0 0.0 0.0 0.0 0.0 0.0 0.0 0.0 0.0 0.0
0.0 0.0 0.0 0.0 0.0 0.0 0.0 0.0 0.0 0.0 0.0 0.0 0.0 0.0 0.0 0.0 0.0 0.0 0.0 0.0 0.0 0.0 0.0 0.0 0.0 0.0 0.0 0.0 0.0 0.0 0.0 0.0 0.0 0.0 0.0 0.0 0.0 0.0 0.0 0.0 0.0 0.0 0.0
0.0 0.0 0.0 0.0 0.0 0.0 0.0 0.0 0.0 0.0 0.0 0.0 0.0 0.0 0.0 0.0 0.0 0.0 0.0 0.0 0.0 0.0 0.0 0.0 0.0 0.0 0.0 0.0 0.0 0.0 0.0 0.0 0.1 0.2 0.0 0.0 0.0 0.0 0.0 0.0 0.0 0.0 0.0
0.0 0.0 0.0 0.0 0.0 0.0 0.0 0.0 0.0 0.0 0.0 0.0 0.0 0.0 0.0 0.0 0.0 0.0 0.0 0.0 0.0 0.0 0.0 0.0 0.0 0.0 0.0 0.0 0.0 0.1 0.1 0.0 0.0 0.1 0.1 0.0 0.0 0.0 0.0 0.2 0.1 0.0 0.0
0.0 0.0 0.0 0.0 0.0 0.0 0.0 0.0 0.0 0.0 0.0 0.0 0.0 0.0 0.0 0.0 0.0 0.0 0.0 0.0 0.0 0.0 0.0 0.0 0.0 0.0 0.0 0.0 0.0 0.0 0.0 0.1 0.3 0.4 0.2 0.3 0.1 0.1 0.1 0.4 0.4 0.2 0.0
0.0 0.0 0.0 0.0 0.0 0.0 0.0 0.0 0.0 0.0 0.0 0.0 0.0 0.0 0.0 0.0 0.0 0.0 0.0 0.0 0.0 0.0 0.0 0.0 0.0 0.0 0.0 0.0 0.0 0.0 0.1 0.4 0.9 0.8 0.6 0.6 0.3 0.4 0.4 0.6 0.7 1.0 0.8
0.0 0.0 0.0 0.0 0.0 0.0 0.0 0.0 0.0 0.0 0.0 0.3 0.0 0.0 0.0 0.0 0.0 0.0 0.0 0.0 0.0 0.0 0.0 0.0 0.0 0.0 0.0 0.0 0.0 0.0 0.1 0.1 0.5 1.4 1.9 1.2 0.9 0.6 1.4 2.4 1.9 2.3 1.8
0.0 0.0 0.0 0.0 0.0 0.0 0.0 0.0 0.0 0.0 0.0 0.0 0.0 0.0 0.0 0.0 0.0 0.0 0.0 0.0 0.0 0.0 0.0 0.0 0.0 0.0 0.0 0.1 0.8 0.8 0.3 0.3 0.2 1.5 1.2 1.5 1.8 1.5 0.8 0.8 1.7 1.7 0.8
0.0 0.0 0.0 0.0 0.0 0.0 0.0 0.0 0.0 0.0 0.0 0.0 0.0 0.0 0.0 0.0 0.0 0.0 0.0 0.0 0.0 0.0 0.0 0.0 0.0 0.1 0.2 0.7 1.4 1.6 0.8 0.3 0.7 0.2 0.7 0.5 0.4 0.2 0.3 2.9 3.3 3.8 3.1
0.0 0.0 0.0 0.0 0.0 0.0 0.0 0.0 0.0 0.0 0.0 0.0 0.0 0.0 0.0 0.0 0.0 0.1 0.0 0.1 0.2 0.1 0.1 0.0 0.2 0.2 1.2 1.3 2.8 2.2 2.0 0.6 0.2 0.8 0.4 0.3 0.3 1.5 1.2 2.8 4.5 6.7 4.7
3.4 2.4 0.0 0.0 0.0 0.0 0.0 0.0 0.0 0.0 0.0 0.0 0.0 0.0 0.1 0.1 0.1 0.0 0.0 0.1 0.6 0.6 0.3 0.2 0.3 2.4 1.7 1.2 1.2 2.1 2.2 2.0 1.4 3.4 2.8 2.1 3.8 3.7 3.7 4.5 4.3 6.5 7.6
8.0 8.2 3.0 0.0 1.5 0.0 0.0 0.0 0.0 0.0 0.0 0.0 0.1 0.1 0.0 0.1 0.1 0.1 0.1 0.0 0.3 1.5 1.0 1.3 2.4 0.8 1.2 0.4 0.8 3.0 4.1 4.7 6.3 9.3 9.2 8.2 9.8 8.6 6.8 6.3 5.7 5.5 4.8
7.3 9.4 4.6 6.0 2.0 2.2 0.0 0.0 0.0 0.0 0.0 0.0 0.0 0.1 0.0 0.1 0.1 0.2 0.1 0.2 0.2 1.0 2.2 3.2 2.3 4.6 3.5 5.9 6.7 12.0 10.8 14.6 16.8 16.3 14.6 12.6 10.0 7.6 5.0 4.5 3.8 2.9 2.6
5.8 6.3 8.7 6.0 8.2 9.6 3.4 4.0 0.0 0.0 0.0 0.0 0.0 0.0 0.1 0.1 0.0 0.2 1.3 1.3 2.5 3.2 8.4 15.5 14.3 21.5 20.3 20.8 20.5 19.4 18.1 16.2 14.1 12.0 9.0 6.8 5.1 4.3 4.8 4.3 6.0 4.5 4.7
2.4 2.5 3.3 5.1 7.6 8.5 10.8 12.5 12.3 11.7 0.0 0.0 0.0 0.9 1.5 1.7 1.6 12.4 15.8 9.3 17.0 13.0 12.3 19.5 18.5 16.1 14.0 12.2 10.1 8.1 6.8 5.2 4.6 3.3 3.8 3.0 2.0 3.2 3.1 2.5 3.3 3.5 4.5
1.0 1.3 2.1 2.4 3.4 4.5 6.2 8.0 10.0 11.5 13.0 17.1 11.4 15.1 16.9 12.5 17.9 16.8 16.3 16.3 15.4 13.3 12.5 10.8 8.8 7.3 5.7 3.8 4.9 2.1 2.0 2.5 1.5 2.0 2.0 1.4 2.2 2.9 3.3 2.4 2.6 3.4 3.3
0.2 0.3 2.4 2.8 3.4 4.6 3.9 4.5 6.3 16.1 18.2 21.4 21.3 20.6 20.5 20.3 17.2 16.6 13.8 11.1 10.0 6.5 9.1 7.5 6.6 5.6 4.3 2.8 2.5 2.5 2.7 1.8 2.0 2.3 2.3 2.8 2.9 2.8 3.0 2.7 2.7 2.0 1.8
0.0 4.3 10.0 14.2 14.7 15.1 15.2 17.2 16.2 15.8 14.9 15.7 14.8 12.5 11.3 10.1 9.1 7.9 6.7 5.1 6.3 4.8 4.4 3.7 3.5 3.0 2.6 2.6 2.4 2.4 2.0 1.5 1.3 1.8 1.6 1.6 2.0 2.0 2.1 1.8 2.5 2.8 2.3
7.0 8.8 9.5 9.4 8.6 7.1 6.6 7.6 7.7 7.5 7.8 8.0 6.8 6.0 5.3 3.9 3.0 2.8 1.9 2.8 3.4 2.8 2.7 1.6 2.3 2.0 1.6 1.4 1.8 1.8 1.9 1.8 1.4 1.8 1.4 1.4 1.9 2.1 1.4 1.2 1.3 1.0 0.8
6.6 6.7 5.8 5.5 5.8 5.1 4.3 3.7 3.8 3.1 3.2 3.3 3.5 3.9 2.3 0.9 0.7 1.0 0.9 2.0 2.1 1.2 1.4 1.3 1.3 1.3 1.6 1.4 1.4 1.6 1.5 1.2 1.2 1.6 1.7 1.8 1.5 1.8 2.0 1.6 1.6 1.7 0.8
6.6 6.3 4.4 3.7 3.1 2.8 2.2 2.0 1.8 2.1 1.8 1.4 1.2 0.8 0.9 1.7 2.2 1.9 1.8 1.8 1.5 1.3 1.3 1.1 1.0 0.9 0.9 1.2 1.1 1.3 1.2 1.1 1.0 1.0 1.3 1.3 1.5 1.9 1.2 1.8 1.6 1.4 0.8
3.7 3.1 2.5 2.5 1.8 1.5 1.2 1.0 0.9 1.1 0.8 1.1 1.5 0.8 1.6 1.9 1.7 1.5 1.3 1.5 1.2 1.3 1.6 1.8 1.8 1.6 1.5 2.0 1.9 1.8 1.5 1.3 1.5 1.6 1.3 1.1 1.3 1.5 1.7 1.5 1.5 1.7 1.2
2.2 2.0 1.4 1.4 1.2 0.6 0.9 0.6 1.6 1.5 1.6 1.3 1.3 1.4 0.9 1.5 1.4 1.2 1.1 1.1 1.0 1.0 0.8 2.1 1.9 1.2 0.8 1.3 1.7 2.2 2.0 1.3 1.4 1.8 2.0 1.5 1.3 1.3 1.6 1.7 1.5 1.9 1.5
1.0 1.0 1.1 0.7 1.2 0.7 1.3 1.2 1.2 2.2 2.7 1.9 1.3 1.4 1.4 1.6 1.7 1.6 1.0 0.4 0.3 0.4 0.8 1.2 1.4 1.4 1.0 0.8 1.4 1.6 1.8 1.6 2.0 2.1 2.9 2.3 1.4 1.1 1.7 1.7 1.5 1.5 1.4
1.1 1.2 1.6 1.3 2.0 2.5 2.7 2.8 2.3 1.2 1.8 2.0 1.7 1.5 1.0 1.1 1.0 1.4 1.3 0.9 0.7 0.8 1.0 0.9 0.6 0.6 0.6 0.8 1.0 0.9 0.7 1.7 2.5 2.5 2.9 2.2 1.6 0.8 1.7 1.9 1.6 1.8 1.4
1.3 1.7 1.7 1.9 1.9 2.4 2.5 2.2 1.8 1.3 1.1 1.2 1.5 1.2 1.1 0.8 0.7 0.6 0.7 0.6 0.6 0.9 0.6 0.6 0.7 0.6 0.6 0.8 0.9 1.1 0.9 1.2 1.8 2.3 3.0 2.8 2.0 1.4 1.8 2.1 1.9 2.2 1.3